Nogales, AZ

2:26 PM MST on October 20, 2019 (GMT -0700)
Nogales International

Weather History for KOLS - September, 2019

Change the Weather History Date:

Saturday, September 21, 2019

  Actual Average (WUND) Record (WUND)
Temperature  
Mean Temperature 76 °F -  
Max Temperature 87 °F - - (-1)
Min Temperature 64 °F - - (-1)
Cooling Degree Days 10    
Growing Degree Days 26 (Base 50)    
Moisture  
Dew Point 58 °F    
Average Humidity 59    
Maximum Humidity 84    
Minimum Humidity 30    
Precipitation  
Precipitation 0.00 in - - ()
Sea Level Pressure  
Sea Level Pressure 29.86 in    
Wind  
Wind Speed 3 mph ()    
Max Wind Speed 13 mph    
Max Gust Speed 20 mph    
Visibility 10.0 miles    
Events      
Averages and records for this station are not official NWS values.
T = Trace of Precipitation, MM = Missing Value Source: Averaged Metar Reports

Daily Weather History Graph

Daily Weather History Graph

Search for Another Location

Airport or City:

Astronomy

Sep. 21, 2019 Rise Set
Actual Time 6:10 AM MST 6:21 PM MST
Civil Twilight 5:46 AM MST 6:45 PM MST
Nautical Twilight 5:18 AM MST 7:13 PM MST
Astronomical Twilight 4:49 AM MST 7:42 PM MST
Moon 11:26 PM MST (9/21) 12:56 PM MST (9/21)
Length of Visible Light 12h 59m
Length of Day
12h 10m
Waning Gibbous, 53% of the Moon is Illuminated
Sep 21
Waning Gibbous
Sep 21
Last Quarter
Sep 28
New
Oct 5
First Quarter
Oct 13
Full

Hourly Weather History & Observations

Time (MST) Temp. Heat Index Dew Point Humidity Pressure Visibility Wind Dir Wind Speed Gust Speed Precip Events Conditions
12:54 AM 68.0 °F - 57.9 °F 70% 29.83 in 10.0 mi ENE 3.5 mph - N/A   Mostly Cloudy
1:54 AM 69.1 °F - 59.0 °F 70% 29.83 in 10.0 mi SSE 3.5 mph - N/A   Mostly Cloudy
2:54 AM 66.9 °F - 59.0 °F 76% 29.82 in 10.0 mi Calm Calm - N/A   Clear
3:54 AM 66.9 °F - 59.0 °F 76% 29.83 in 10.0 mi SSE 4.6 mph - N/A   Overcast
4:13 AM 66.9 °F - 59.0 °F 76% 30.04 in 10.0 mi Calm Calm - N/A   Overcast
4:54 AM 66.0 °F - 59.0 °F 78% 29.84 in 10.0 mi Calm Calm - N/A   Scattered Clouds
6:35 AM 64.0 °F - 59.0 °F 84% 30.05 in 10.0 mi East 3.5 mph - N/A   Mostly Cloudy
6:54 AM 64.0 °F - 59.0 °F 84% 29.87 in 10.0 mi ENE 3.5 mph - N/A   Mostly Cloudy
7:35 AM 68.0 °F - 61.0 °F 78% 30.05 in 10.0 mi Calm Calm - N/A   Mostly Cloudy
7:54 AM 70.0 °F - 61.0 °F 73% 29.87 in 10.0 mi Calm Calm - N/A   Partly Cloudy
8:54 AM 75.9 °F - 61.0 °F 60% 29.88 in 10.0 mi Calm Calm - N/A   Clear
9:54 AM 79.0 °F - 59.0 °F 50% 29.88 in 10.0 mi Variable 4.6 mph - N/A   Mostly Cloudy
10:54 AM 81.0 °F 81.1 °F 57.9 °F 45% 29.86 in 10.0 mi SSE 3.5 mph - N/A   Partly Cloudy
11:54 AM 84.9 °F 83.7 °F 55.9 °F 37% 29.84 in 10.0 mi Variable 6.9 mph - N/A   Partly Cloudy
12:54 PM 86.0 °F 84.5 °F 55.0 °F 35% 29.82 in 10.0 mi WSW 9.2 mph - N/A   Partly Cloudy
1:54 PM 87.1 °F 84.9 °F 53.1 °F 31% 29.78 in 10.0 mi SW 9.2 mph - N/A   Clear
2:54 PM 84.9 °F - 51.1 °F 31% 29.77 in 10.0 mi West 6.9 mph - N/A   Partly Cloudy
3:54 PM 87.1 °F - 52.0 °F 30% 29.77 in 10.0 mi West 10.4 mph - N/A   Mostly Cloudy
4:54 PM 84.9 °F - 52.0 °F 32% 29.77 in 10.0 mi WSW 12.7 mph 19.6 mph N/A   Clear
5:54 PM 82.0 °F 81.3 °F 54.0 °F 38% 29.79 in 10.0 mi WSW 6.9 mph - N/A   Clear
6:54 PM 78.1 °F - 57.0 °F 48% 29.81 in 10.0 mi SW 5.8 mph - N/A   Clear
7:54 PM 73.9 °F - 57.0 °F 55% 29.83 in 10.0 mi South 5.8 mph - N/A   Clear
8:54 PM 75.9 °F - 57.9 °F 54% 29.84 in 10.0 mi SSW 6.9 mph - N/A   Overcast
9:54 PM 73.0 °F - 62.1 °F 68% 29.86 in 10.0 mi SW 4.6 mph - N/A   Mostly Cloudy
10:54 PM 72.0 °F - 62.1 °F 71% 29.87 in 10.0 mi SSE 3.5 mph - N/A   Overcast
11:36 PM 72.0 °F - 63.0 °F 73% 30.06 in 10.0 mi South 3.5 mph - N/A   Overcast
11:54 PM 71.1 °F - 62.1 °F 73% 29.86 in 10.0 mi SSE 4.6 mph - N/A   Overcast